This demonstration page uses our WeatherBlox Daily Observations layout. Learn more.

36.17497, -115.13722

Hourly Observations for June 15, 2016

Temp ( °F °C ) Dew Point ( °F °C ) Humidity (%) Winds ( mph kmh ) Pressure ( in mb ) Visibility ( mi km ) Precip ( " mm )
12:53 am 00:53 Clear 82 27.8 30 -1.1 15 15 SSW 13 20 29.68 1005 10 16.0934 0 0
1:53 am 01:53 Clear 81 27.2 29 -1.7 15 15 SSW 18 30 29.67 1005 10 16.0934 0 0
2:53 am 02:53 Clear 79 26.1 27 -2.8 15 15 SSW 16 26 29.67 1005 10 16.0934 0 0
3:53 am 03:53 Clear 76 24.4 33 0.6 21 21 SSW 20 31 29.68 1005 10 16.0934 0 0
4:53 am 04:53 Clear 75 23.9 31 -0.6 20 20 S 20 31 29.7 1006 10 16.0934 0 0
5:53 am 05:53 Sunny 75 23.9 29 -1.7 18 18 SSW 21 33 29.7 1006 10 16.0934 0 0
6:53 am 06:53 Sunny 76 24.4 28 -2.2 17 17 SSW 20 31 29.72 1007 10 16.0934 0 0
7:53 am 07:53 Sunny 79 26.1 28 -2.2 15 15 S 23 37 29.73 1007 10 16.0934 0 0
8:53 am 08:53 Sunny 82 27.8 28 -2.2 14 14 S 24 39 29.74 1007 10 16.0934 0 0
9:53 am 09:53 Sunny 85 29.4 28 -2.2 13 13 S 21 33 29.73 1007 10 16.0934 0 0
10:53 am 10:53 Sunny 89 31.7 28 -2.2 11 11 SSW 22 35 29.72 1007 10 16.0934 0 0
12:53 pm 12:53 Sunny 91 32.8 29 -1.7 11 11 SW 24 39 29.72 1007 10 16.0934 0 0
1:53 pm 13:53 Sunny 93 33.9 29 -1.7 10 10 SSW 20 31 29.71 1006 10 16.0934 0 0
2:53 pm 14:53 Sunny 93 33.9 30 -1.1 10 10 SW 18 30 29.71 1006 10 16.0934 0 0
3:53 pm 15:53 Sunny 94 34.4 30 -1.1 10 10 SSW 24 39 29.68 1005 10 16.0934 0 0
4:53 pm 16:53 Sunny 94 34.4 32 0 11 11 SW 25 41 29.68 1005 10 16.0934 0 0
5:53 pm 17:53 Sunny 93 33.9 32 0 11 11 SW 24 39 29.67 1005 10 16.0934 0 0
6:53 pm 18:53 Sunny 91 32.8 32 0 12 12 WSW 20 31 29.69 1005 10 16.0934 0 0
7:53 pm 19:53 Sunny 88 31.1 32 0 13 13 WSW 17 28 29.7 1006 10 16.0934 0 0
8:53 pm 20:53 Clear 84 28.9 34 1.1 17 17 WSW 17 28 29.73 1007 10 16.0934 0 0
9:53 pm 21:53 Clear 81 27.2 37 2.8 21 21 SW 21 33 29.75 1007 10 16.0934 0 0
10:53 pm 22:53 Clear 78 25.6 38 3.3 24 24 SW 22 35 29.76 1008 10 16.0934 0 0
11:53 pm 23:53 Clear 77 25 38 3.3 24 24 SW 24 39 29.75 1007 10 16.0934 0 0

Powered by AerisWeather